Location: Bluff Heights
(33.7692°N, 118.1592°W)
Time: 16:36:00
(UTC+00:00)

AO-73 - Visible Passes

Search period start: 25 September 2021 00:00
Search period end: 05 October 2021 00:00
Orbit: 581 x 661 km, 97.6° (Epoch: 24 September)

Date Brightness Start Highest point End Pass type
(mag) Time Alt. Az. Time Alt. Az. Time Alt. Az.
25 Sep ? 11:44:09 10° NE 11:47:27 22° E 11:50:41 10° SSE visible
26 Sep ? 12:01:20 10° NNE 12:05:12 36° E 12:09:00 10° SSE visible
27 Sep ? 12:18:46 10° NNE 12:22:54 63° E 12:26:58 10° S visible
28 Sep ? 12:36:24 10° N 12:40:34 76° WNW 12:44:39 10° SSW visible
29 Sep ? 11:20:43 10° ENE 11:21:47 11° E 11:22:52 10° ESE visible
29 Sep ? 12:54:13 10° N 12:58:10 44° WNW 13:02:04 10° SSW visible
30 Sep ? 11:36:42 10° NE 11:39:36 18° E 11:42:27 10° SE visible
30 Sep ? 13:12:14 10° NNW 13:15:44 27° WNW 13:19:12 10° SW visible
01 Oct ? 11:53:42 10° NE 11:57:21 30° E 12:00:58 10° SSE visible
02 Oct ? 12:11:02 10° NNE 12:15:04 50° E 12:19:03 10° S visible
03 Oct ? 12:28:35 10° NNE 12:32:43 87° E 12:36:50 10° SSW visible
04 Oct ? 12:46:19 10° N 12:50:21 54° WNW 12:54:21 10° SSW visible
